Dewpoint
-6 -4 -3 -2 -0 -2 -0 -2 -1 -8 -7 -1 2 7 8 8 5 5 6 6 5 4 6 6 6 7 4 1 1 -2 -2 -3 -5 -7 -7 -6 -6 -6 -6 -6 -6 -6 -6 -4 -2 2 3 4 5
-4 -5 -3 -2 -4 -4 -6 -7 -9 -7 -0 9 9 9 8 8 8 6 7 7 4 4 5 7 6 6 6 2 4 3 0 -1 -4 -5 -6 -6 -5 -5 -5 -5 -5 -4 -3 -1 1 1 4 6 6
-6 -4 -4 -2 -2 -4 -6 -7 -9 -10 5 4 11 11 10 9 7 6 6 7 5 4 4 7 7 6 7 5 4 5 5 2 -2 -4 -5 -5 -4 -4 -4 -4 -3 -2 2 3 2 2 3 6 8
-5 -5 -6 -4 -4 -4 -4 -7 -9 -10 -8 1 10 11 11 9 8 6 6 8 7 4 3 6 7 7 7 7 5 5 6 5 2 -3 -3 -4 -4 -3 -3 -3 -2 -1 1 3 3 3 4 7 9
-5 -8 -5 -5 -5 -5 -7 -9 -10 -8 -5 4 7 11 11 10 8 4 2 7 8 6 3 5 7 8 7 8 7 5 6 7 5 1 -2 -3 -3 -3 -2 -2 -1 -0 1 2 3 4 6 9 9
-7 -9 -7 -10 -7 -9 -10 -10 -8 -8 -4 6 9 10 11 11 8 3 2 6 7 8 5 4 6 8 8 8 8 7 6 6 7 4 0 -2 -2 -2 -1 -1 -0 0 1 1 1 4 7 9 11
-6 -7 -7 -8 -8 -9 -10 -10 -10 -8 -7 -7 8 7 9 10 8 5 2 4 6 8 7 5 5 7 9 9 8 8 7 7 7 7 4 -0 -1 -1 -0 0 1 1 2 2 2 3 4 7 8
-7 -7 -6 -7 -9 -10 -11 -10 -10 -10 -9 -6 6 2 5 7 10 8 3 3 4 8 8 7 5 5 7 9 9 9 9 8 7 7 7 4 1 0 0 1 1 2 2 3 3 3 3 3 4
-7 -5 -6 -8 -8 -11 -10 -9 -10 -10 -10 -10 -9 -4 4 -2 7 9 6 4 5 7 8 7 6 5 3 7 9 9 9 9 8 8 8 8 4 2 2 1 2 2 3 3 4 4 4 5 5
-6 -5 -7 -9 -10 -11 -9 -9 -9 -9 -9 -10 -11 -3 -8 -7 2 7 7 4 4 4 6 8 8 7 4 2 5 8 10 9 9 9 8 8 7 4 2 2 3 2 3 3 4 5 5 6 6
-6 -5 -7 -9 -9 -8 -8 -8 -9 -9 -8 -10 -10 -10 -10 -8 -4 1 3 6 1 3 4 5 7 9 8 4 3 5 9 10 10 10 9 9 8 7 4 2 2 2 3 3 4 4 5 6 6
-6 -7 -7 -8 -8 -6 -6 -7 -8 -8 -8 -9 -9 -9 -8 -8 -8 -8 -3 -1 1 2 3 4 5 8 8 7 4 3 5 9 10 10 10 10 9 8 6 3 1 1 2 3 4 5 6 6 6
-6 -6 -6 -7 -6 -5 -5 -6 -6 -6 -8 -9 -9 -9 -9 -10 -7 -8 -5 0 3 2 3 4 5 6 8 8 6 4 3 6 8 10 10 10 9 8 6 5 4 3 2 3 3 4 6 7 7
-5 -4 -4 -5 -6 -6 -5 -6 -7 -9 -9 -9 -8 -8 -7 -4 -5 -7 -6 -2 -0 2 3 5 5 5 8 8 8 6 5 5 6 8 9 9 9 8 7 7 7 4 3 3 5 4 5 6 7
-4 -4 -6 -7 -7 -6 -5 -5 -5 -12 -10 -4 -3 -3 -3 -2 -2 -2 -3 -6 -6 -4 2 4 5 5 6 8 9 9 7 6 6 7 8 8 9 8 8 9 8 7 5 4 5 5 5 6 7
-4 -5 -6 -10 -5 -6 -6 -10 -11 -13 -4 -4 -5 -2 -1 -1 -1 -2 -2 -3 -3 -4 -5 -2 4 5 6 8 9 10 10 9 8 8 8 8 8 8 8 8 9 9 8 6 6 7 7 7 10
-4 -10 -8 -11 -9 -7 -5 -7 -9 -5 -4 -5 -8 -7 -5 -4 -2 -2 -2 -2 -2 -3 -4 -5 -2 4 6 7 9 10 11 11 10 11 10 9 8 8 8 9 9 10 10 9 7 8 9 10 12
-6 -5 -5 -6 -8 -6 -5 -4 -5 -7 -6 -6 -8 -11 -12 -7 -7 -5 -2 -1 -1 -2 -2 -3 -5 0 5 7 9 10 12 12 12 12 12 12 10 8 9 9 10 11 12 11 9 9 10 11 12
-8 -6 -8 -7 -5 -6 -8 -5 -4 -6 -8 -9 -6 -4 -4 -5 -5 -2 -1 -1 -1 -1 -2 -2 -4 -3 3 6 7 10 11 11 12 12 12 12 10 9 9 9 10 11 12 12 12 10 10 11 13
-4 -5 -5 -6 -8 -5 -5 -5 -6 -6 -7 -7 -6 -6 -2 -4 -2 -1 -1 -1 -1 1 1 -1 -3 -3 2 6 7 9 10 11 12 13 13 9 8 9 9 10 10 11 12 12 12 11 10 11 13
-4 -5 -5 -8 -6 -5 -2 -5 -2 -2 -3 -3 -1 -1 -1 -1 -1 -1 -1 2 4 3 1 -1 -3 -2 2 4 7 9 11 11 12 13 12 9 8 9 10 12 13 13 13 13 12 12 11 12 12
-3 -5 -6 -6 -4 -5 1 -3 -2 -1 -1 -1 -1 0 -1 -1 -1 1 5 5 3 1 -0 -1 -2 -2 1 4 7 9 9 10 11 12 12 10 10 11 11 11 12 12 12 12 13 13 13 13 13
-2 -3 -2 -1 -1 1 -0 1 -6 1 1 1 0 0 -1 -1 0 4 7 5 4 4 3 1 2 3 5 8 10 10 11 12 13 13 13 12 12 11 11 11 12 12 12 12 13 13 13 13 12
-1 2 2 3 3 6 1 -1 -9 -2 -1 1 -0 0 -1 0 2 7 8 6 6 6 6 6 6 7 9 10 11 11 13 13 13 13 12 13 13 13 13 13 12 12 11 12 12 12 13 12 12
2 3 2 5 6 2 -0 3 -1 0 -0 0 1 -0 0 1 4 7 6 7 7 9 8 8 9 9 10 11 11 12 12 13 12 12 12 13 13 12 12 13 13 12 10 9 11 11 11 9 12
2 1 4 0 4 -3 4 5 0 0 -1 -0 -1 -1 0 1 5 6 5 5 6 10 11 11 11 10 10 10 11 12 12 12 11 10 10 11 13 12 11 12 11 11 11 10 9 10 11 11 10
4 4 -0 1 3 4 -3 -1 -1 2 2 2 2 2 3 4 7 7 5 2 2 5 8 8 8 7 7 8 10 11 11 11 12 11 12 11 11 10 11 10 10 10 10 10 10 10 11 10 9
1 2 5 7 5 3 -0 3 1 4 3 3 4 5 6 6 7 6 4 4 3 3 3 3 3 3 3 3 3 3 3 4 5 7 8 8 6 5 6 7 7 8 9 10 10 10 9 9 9
1 4 4 5 6 4 2 -2 3 3 3 3 3 5 6 8 7 5 6 6 5 4 2 3 4 4 4 4 4 3 3 3 3 3 3 4 4 4 4 6 8 9 9 10 9 9 8 8 8
-1 0 4 4 6 6 4 -0 2 2 2 3 3 6 7 7 7 7 7 7 7 7 5 4 5 6 6 5 5 5 4 4 3 3 3 4 4 4 3 3 3 6 8 8 7 8 8 8 8
Wind_Speed
5 6 7 3 1 1 3 2 1 2 1 2 4 2 5 3 1 5 7 10 16 25 26 25 22 20 18 16 16 15 15 16 15 15 15 16 17 17 16 16 16 16 15 15 15 15 15 16 17
7 7 4 1 2 3 2 2 0 1 2 11 8 5 4 4 4 7 9 8 16 24 26 26 24 22 19 17 16 15 14 14 14 15 16 16 16 16 16 16 16 16 17 17 17 18 18 18 18
5 5 2 3 2 3 3 1 4 2 8 2 4 5 2 2 4 5 5 10 15 24 25 25 25 24 21 19 17 16 15 14 14 14 15 16 17 16 17 16 16 17 17 17 17 17 18 19 19
5 2 4 2 3 1 1 4 5 4 3 3 6 5 4 5 4 4 7 11 14 23 24 25 25 25 23 21 19 18 16 14 14 14 15 15 16 16 16 16 16 15 16 17 16 16 16 16 16
3 3 2 2 1 3 3 5 5 1 1 3 2 5 4 7 6 6 8 11 9 19 24 25 26 26 24 23 21 19 17 15 14 14 14 15 15 16 16 16 16 16 16 15 15 14 14 13 13
2 2 2 0 1 3 5 6 1 1 2 3 2 5 4 7 7 6 9 10 9 13 22 25 27 27 26 24 23 20 19 17 15 14 14 14 15 16 16 16 15 15 14 15 14 13 13 12 11
3 2 2 1 1 3 2 4 4 2 3 2 6 3 2 9 9 8 10 10 11 15 20 23 26 27 27 26 24 23 21 19 18 16 15 15 15 16 16 16 15 14 13 13 13 12 12 11 11
4 3 3 3 2 2 4 2 4 7 4 3 2 2 2 7 10 11 11 12 13 16 20 22 25 26 28 28 27 25 24 22 20 18 17 16 16 16 16 16 15 14 13 12 12 12 11 10 10
4 3 3 3 6 1 2 7 1 4 1 4 2 2 3 2 13 13 13 15 16 18 21 23 25 27 28 30 30 28 26 24 22 20 19 18 17 17 16 16 15 15 14 13 13 13 11 11 10
3 3 7 2 3 1 4 3 10 1 6 3 5 1 2 4 6 13 14 17 18 18 19 21 21 25 27 30 30 31 29 28 27 24 22 20 18 17 16 16 15 15 15 14 13 13 12 11 10
3 4 3 1 4 4 3 5 4 2 1 6 4 7 9 7 9 12 15 18 17 17 19 20 19 21 25 29 31 32 33 32 30 28 25 23 21 20 19 18 18 17 16 16 15 14 13 12 11
2 4 4 1 1 4 7 9 5 7 12 10 12 12 15 16 18 20 20 18 19 19 20 20 21 21 22 27 30 31 32 34 34 32 28 26 26 24 22 21 20 19 18 16 15 15 15 13 12
3 2 3 6 10 13 13 15 8 20 24 20 19 20 18 19 20 21 21 21 23 23 23 23 23 24 23 25 28 31 33 34 35 33 32 30 28 25 24 24 23 21 18 17 16 16 16 14 14
2 4 8 8 15 10 8 9 4 21 16 19 14 11 11 7 6 14 20 24 25 26 27 26 26 26 26 25 26 30 32 33 33 33 32 31 29 27 27 25 24 22 18 17 16 16 16 17 17
1 5 7 8 4 7 7 6 10 25 13 9 5 3 5 6 4 3 5 15 21 24 27 29 29 29 29 28 27 27 30 30 31 31 31 32 30 28 27 27 25 21 19 18 18 18 18 19 19
1 2 4 1 4 2 7 9 7 7 6 10 13 12 11 13 13 11 12 13 14 16 19 25 32 33 32 32 30 28 28 28 28 29 31 32 31 30 29 28 27 23 21 20 21 20 20 20 19
4 4 4 7 2 2 6 7 3 5 9 14 18 20 22 22 22 20 20 18 17 19 21 23 31 36 35 33 33 31 29 28 26 25 27 30 31 30 29 28 27 25 23 23 22 23 21 21 21
6 4 4 7 1 2 4 14 15 20 20 22 28 30 29 29 28 26 27 21 19 21 22 24 28 35 36 35 33 33 31 28 27 24 21 21 24 28 28 28 27 26 25 25 25 25 23 25 24
5 3 6 5 4 7 15 17 14 20 21 31 30 25 24 28 30 27 22 22 26 27 30 30 28 32 36 37 35 35 33 30 29 24 20 19 19 21 23 24 25 26 27 27 27 27 27 29 29
7 8 11 14 11 6 10 16 18 20 27 27 30 27 25 29 28 23 26 28 30 25 24 30 32 31 35 36 34 32 30 29 28 24 18 17 18 19 21 21 23 23 24 27 28 29 30 31 33
9 11 8 11 9 8 10 16 8 7 18 20 23 24 24 22 22 25 22 15 12 12 14 23 30 31 29 29 30 28 25 25 26 24 18 18 18 17 17 18 20 21 22 25 27 28 30 33 36
10 12 10 9 5 8 3 10 10 7 12 12 24 20 19 16 18 15 7 6 6 3 7 16 20 21 21 21 22 22 21 21 21 18 17 17 14 13 12 16 18 19 21 23 25 26 28 32 34
7 6 9 4 6 4 5 7 3 1 6 14 14 19 13 12 10 9 7 4 2 3 7 12 13 14 15 14 14 14 14 15 13 13 13 16 16 16 19 18 19 19 20 22 23 25 25 24 31
9 7 4 3 2 8 13 11 15 8 13 5 14 14 12 12 10 13 10 7 6 7 9 10 12 12 11 11 10 10 9 9 9 11 12 13 15 16 14 16 16 16 18 21 20 20 21 22 27
10 9 2 3 4 10 6 13 19 6 8 10 10 12 12 13 15 18 14 10 10 10 12 12 13 13 12 11 11 10 10 9 9 10 11 13 15 15 14 16 16 18 17 19 20 18 21 23 23
18 11 6 8 5 7 4 9 6 17 22 20 16 17 12 17 20 20 17 14 12 14 15 15 15 14 13 11 10 10 10 10 10 11 12 13 14 16 17 19 20 21 22 21 21 20 21 21 21
7 11 8 5 4 7 9 13 10 8 11 8 16 17 15 18 22 19 16 16 16 17 17 17 17 16 14 13 11 11 11 12 13 14 15 16 15 16 18 21 22 22 21 21 20 21 19 21 21
9 12 4 3 6 9 7 9 11 5 13 13 12 11 10 18 24 22 19 19 19 18 17 18 18 16 14 12 10 8 6 7 8 9 9 11 11 13 15 17 18 20 19 20 18 18 17 20 19
8 8 5 6 5 6 5 8 5 12 12 11 12 12 14 22 26 24 22 20 18 17 17 17 15 15 15 14 12 10 8 7 6 7 7 8 8 9 11 14 17 17 16 16 17 18 21 19 20
20 17 13 7 7 6 6 13 4 4 5 8 11 10 15 22 23 23 22 23 20 17 16 16 16 16 15 14 11 9 7 5 3 3 3 4 6 8 10 11 13 15 16 16 20 22 20 21 23
Wind_Direction
4 352 340 341 218 48 76 103 279 275 224 276 111 109 89 65 106 85 142 160 178 182 176 176 175 172 169 163 153 150 150 148 147 146 142 137 132 130 130 126 126 127 132 133 129 126 123 119 114
342 340 334 50 79 94 97 262 77 180 160 112 99 86 70 72 60 106 143 158 171 183 181 179 181 180 177 172 164 158 155 154 153 151 147 141 137 135 133 133 131 131 132 131 129 130 127 122 118
334 350 355 75 102 118 115 256 343 285 177 165 118 91 109 111 96 116 154 162 167 185 187 185 185 185 184 180 176 170 166 163 160 157 152 147 145 142 139 138 136 135 135 134 133 134 134 132 129
342 359 46 69 97 165 267 328 310 298 169 167 135 104 110 124 117 115 125 161 175 184 192 191 191 190 189 187 186 181 176 171 167 164 160 155 152 147 145 144 142 141 140 139 138 140 140 136 133
355 29 56 80 322 285 269 290 314 285 59 111 164 135 140 134 136 115 119 147 162 183 192 195 196 196 195 194 193 190 186 180 175 173 169 164 160 155 154 153 151 149 147 145 144 145 146 144 141
64 59 50 139 256 277 284 310 253 197 36 99 114 122 130 159 152 139 135 147 162 183 191 198 200 201 200 200 200 198 196 191 185 182 179 174 170 166 163 160 158 157 156 153 151 151 157 159 159
119 91 158 223 281 297 336 356 34 29 114 18 141 119 166 174 173 171 161 157 172 186 196 204 205 204 205 205 204 204 203 201 195 190 187 183 179 175 172 168 167 166 166 161 159 162 168 173 177
128 98 149 217 196 224 354 47 25 34 67 84 215 165 140 193 195 195 185 176 183 190 199 209 210 209 208 207 208 208 208 208 204 199 194 190 188 185 181 178 176 175 175 177 174 179 182 187 191
137 102 189 227 170 177 18 3 21 337 316 334 269 230 181 207 212 213 208 200 196 195 200 210 215 214 213 209 209 210 211 211 209 206 202 199 197 193 191 189 186 184 186 191 190 196 197 203 209
131 174 210 212 195 245 316 311 309 126 344 307 307 232 324 307 218 226 229 222 212 204 203 208 214 219 218 216 211 211 211 211 212 210 210 208 207 205 202 200 197 196 195 201 208 207 210 219 229
167 211 204 224 239 290 274 280 280 68 245 233 265 299 293 282 271 243 243 240 239 222 216 214 215 219 220 220 214 213 212 214 214 214 214 214 213 212 209 211 210 207 206 209 214 224 226 227 238
231 237 200 268 232 303 295 296 276 205 245 282 288 279 278 274 276 268 248 244 249 240 229 223 222 223 222 222 219 218 217 217 217 216 216 217 217 216 217 218 220 220 216 216 219 225 233 238 242
205 277 221 252 281 280 276 265 279 278 280 287 283 276 268 270 268 262 255 246 247 247 240 230 227 228 225 223 222 220 221 222 220 219 220 221 222 223 223 224 223 222 224 223 226 231 238 243 248
202 282 276 274 264 251 240 263 291 269 282 284 284 270 246 253 281 251 240 243 244 248 245 238 233 234 231 229 227 225 224 224 225 225 225 227 227 227 230 231 232 235 229 236 235 238 241 247 250
264 303 309 230 251 237 226 247 224 263 279 267 270 241 236 271 270 323 307 264 255 253 253 243 239 238 236 233 231 230 230 229 227 230 230 231 231 232 235 237 239 239 240 241 243 242 243 248 254
356 107 304 309 172 316 194 265 252 265 232 306 287 275 280 283 287 290 293 286 273 259 258 244 236 237 239 236 234 231 233 232 231 233 235 235 233 235 237 241 243 242 243 243 247 247 248 249 252
12 261 247 304 216 151 217 278 293 194 287 304 304 292 286 286 281 286 288 287 269 259 254 250 228 231 236 239 237 233 234 233 233 237 238 242 239 238 241 243 247 246 246 247 250 252 252 252 252
187 226 233 250 65 116 239 261 277 276 286 291 294 292 288 287 282 292 293 280 267 260 256 252 238 227 233 238 239 237 233 233 235 239 243 244 241 240 242 247 250 250 248 249 250 253 253 252 250
134 196 268 265 224 315 269 265 265 280 282 282 281 276 277 278 286 290 290 277 279 274 262 246 234 226 229 234 235 235 231 231 232 235 240 245 240 239 243 249 252 253 254 256 254 253 252 252 249
209 237 259 288 282 200 277 267 267 259 260 260 266 273 274 284 289 296 289 286 288 274 249 233 227 225 227 231 234 234 233 231 233 234 236 235 234 236 242 249 254 255 257 259 259 258 257 256 254
222 218 229 255 314 266 293 280 257 249 250 259 259 265 271 277 291 294 292 280 280 273 240 217 220 225 231 232 229 231 230 231 230 231 230 227 231 238 246 257 262 263 259 261 263 261 261 260 260
238 212 223 235 274 272 1 294 279 251 251 266 275 264 265 278 282 281 266 275 295 295 196 202 215 218 220 220 222 227 229 226 223 228 231 230 229 235 249 254 257 262 264 267 272 272 271 261 259
218 172 193 187 209 310 241 275 232 209 245 251 251 250 254 250 253 233 225 236 224 128 141 163 174 184 191 198 204 211 216 219 221 226 231 226 229 237 239 249 262 263 267 269 276 273 268 280 266
146 125 107 84 158 259 212 218 279 216 235 241 253 259 240 222 221 207 204 198 178 152 146 148 150 154 158 168 178 188 200 213 214 223 230 232 237 243 255 252 258 257 269 271 275 280 272 277 273
166 140 192 220 191 249 186 212 258 254 243 231 231 239 219 235 214 199 195 182 164 161 154 150 147 153 157 165 173 181 191 201 205 219 237 252 257 265 262 256 259 264 272 275 273 268 272 279 269
190 179 182 206 206 276 139 237 252 225 232 236 237 245 259 223 210 198 189 181 172 164 158 155 153 156 158 168 181 190 194 204 213 221 235 255 270 275 278 279 276 271 266 272 260 263 270 277 269
179 217 217 269 224 275 251 268 268 240 236 226 236 241 231 214 201 195 190 176 171 164 165 161 158 159 161 165 174 183 195 208 218 229 237 244 249 259 266 271 272 269 268 268 266 265 265 270 272
199 139 166 211 217 234 242 262 240 211 220 228 237 231 214 201 192 189 182 171 168 165 162 160 157 157 159 159 162 172 187 205 219 231 239 243 251 257 259 271 273 275 271 270 267 264 274 271 267
174 194 200 168 191 220 275 262 211 220 205 219 240 225 206 191 189 184 183 178 169 163 163 164 163 166 164 161 166 167 169 176 191 210 225 240 255 269 278 278 278 277 273 270 266 267 270 263 255
211 204 176 192 194 232 251 265 150 117 157 200 248 219 189 186 189 187 188 185 179 175 168 169 173 173 172 174 174 176 173 176 199 224 266 291 304 307 303 298 294 290 287 277 273 272 260 259 246
Height
1525 1523 1522 1522 1525 1523 1532 1530 1529 1524 1522 1521 1521 1522 1523 1524 1524 1531 1525 1526 1527 1530 1533 1536 1540 1543 1545 1547 1549 1552 1554 1555 1557 1558 1559 1561 1562 1563 1566 1566 1566 1567 1569 1571 1573 1575 1577 1578 1578
1525 1524 1523 1522 1525 1528 1532 1527 1525 1522 1522 1521 1522 1524 1524 1526 1525 1525 1527 1527 1529 1531 1534 1537 1539 1542 1546 1548 1550 1552 1554 1556 1558 1559 1561 1562 1564 1565 1567 1568 1568 1569 1570 1572 1574 1575 1577 1579 1580
1525 1524 1524 1525 1534 1531 1528 1523 1521 1521 1521 1521 1522 1523 1524 1526 1526 1526 1527 1528 1530 1532 1535 1537 1539 1543 1546 1549 1551 1553 1555 1557 1559 1561 1562 1563 1565 1567 1568 1569 1570 1570 1571 1574 1575 1577 1578 1580 1581
1525 1525 1527 1526 1529 1527 1526 1522 1521 1520 1520 1520 1521 1523 1525 1525 1526 1527 1526 1529 1531 1532 1534 1537 1539 1542 1545 1548 1551 1553 1555 1557 1560 1562 1563 1565 1566 1568 1569 1571 1571 1572 1572 1574 1576 1578 1580 1581 1583
1525 1525 1528 1532 1532 1528 1525 1523 1521 1518 1519 1521 1521 1523 1524 1525 1526 1527 1527 1528 1530 1532 1534 1537 1539 1542 1544 1547 1550 1552 1554 1557 1559 1562 1563 1565 1567 1569 1570 1572 1574 1574 1575 1577 1577 1579 1580 1582 1584
1526 1527 1528 1530 1533 1528 1525 1522 1520 1519 1519 1520 1520 1522 1525 1525 1526 1527 1528 1529 1530 1532 1534 1537 1539 1542 1544 1547 1550 1553 1555 1556 1558 1561 1563 1565 1568 1570 1571 1573 1574 1575 1576 1577 1579 1580 1582 1583 1584
1526 1528 1533 1534 1533 1529 1523 1522 1521 1521 1521 1521 1521 1521 1524 1524 1525 1526 1528 1529 1530 1531 1534 1536 1538 1541 1544 1547 1550 1552 1555 1557 1558 1560 1563 1566 1568 1570 1572 1573 1575 1576 1577 1578 1580 1581 1582 1584 1585
1525 1528 1534 1533 1531 1527 1523 1522 1522 1521 1522 1522 1522 1521 1522 1523 1524 1525 1527 1528 1529 1530 1532 1534 1536 1539 1541 1545 1547 1550 1553 1556 1558 1560 1563 1565 1568 1570 1571 1573 1575 1577 1578 1579 1580 1580 1581 1583 1584
1525 1529 1532 1528 1532 1524 1524 1523 1522 1521 1521 1521 1520 1521 1522 1522 1523 1524 1525 1526 1527 1528 1529 1531 1533 1536 1538 1541 1544 1547 1550 1554 1557 1560 1562 1564 1567 1569 1571 1573 1575 1577 1578 1578 1579 1580 1582 1582 1583
1524 1528 1524 1524 1524 1524 1524 1524 1520 1521 1522 1520 1519 1520 1521 1521 1522 1523 1523 1523 1524 1525 1526 1528 1530 1532 1535 1538 1541 1544 1548 1551 1554 1557 1560 1562 1565 1568 1571 1572 1574 1575 1577 1578 1579 1580 1581 1582 1583
1524 1523 1523 1521 1523 1523 1522 1522 1519 1521 1521 1519 1519 1519 1519 1519 1520 1520 1521 1521 1522 1523 1524 1525 1527 1529 1531 1533 1537 1540 1543 1547 1550 1554 1557 1560 1563 1565 1567 1569 1571 1573 1575 1576 1578 1579 1580 1581 1582
1524 1521 1522 1521 1521 1521 1519 1518 1517 1518 1513 1515 1516 1516 1516 1515 1515 1515 1516 1517 1518 1518 1521 1523 1524 1525 1527 1529 1532 1536 1539 1542 1546 1550 1554 1556 1558 1561 1564 1566 1569 1571 1572 1574 1576 1578 1579 1580 1581
1522 1521 1521 1520 1520 1518 1518 1515 1517 1512 1510 1511 1511 1510 1511 1510 1509 1509 1512 1514 1514 1514 1516 1518 1520 1521 1523 1525 1527 1530 1533 1537 1540 1545 1549 1552 1555 1558 1561 1562 1564 1568 1570 1572 1574 1575 1577 1578 1578
1521 1520 1519 1518 1516 1515 1515 1513 1515 1504 1506 1506 1505 1505 1506 1506 1504 1504 1505 1506 1509 1509 1511 1515 1516 1517 1519 1521 1524 1526 1530 1532 1538 1541 1546 1549 1553 1555 1558 1560 1563 1566 1568 1570 1572 1573 1574 1574 1575
1519 1519 1514 1511 1512 1512 1511 1511 1508 1498 1503 1502 1502 1502 1504 1504 1502 1501 1501 1501 1502 1503 1506 1508 1511 1513 1514 1517 1520 1523 1526 1530 1533 1537 1541 1545 1550 1553 1556 1558 1560 1563 1566 1567 1568 1569 1571 1571 1572
1519 1520 1518 1509 1510 1509 1509 1504 1498 1498 1501 1501 1499 1499 1500 1500 1499 1499 1499 1498 1498 1498 1498 1500 1503 1506 1509 1512 1515 1520 1522 1526 1530 1533 1537 1541 1544 1547 1551 1553 1555 1558 1561 1563 1564 1565 1567 1567 1568
1523 1519 1522 1513 1507 1508 1509 1503 1496 1497 1497 1497 1495 1494 1493 1492 1493 1494 1493 1492 1492 1493 1493 1493 1495 1499 1503 1506 1510 1514 1517 1521 1525 1527 1532 1537 1540 1543 1546 1548 1552 1554 1557 1559 1560 1562 1563 1564 1565
1519 1520 1521 1517 1507 1508 1508 1504 1496 1497 1496 1492 1489 1488 1488 1487 1484 1485 1484 1485 1485 1486 1486 1486 1487 1492 1496 1500 1505 1508 1513 1516 1519 1523 1526 1530 1534 1538 1541 1544 1547 1550 1552 1553 1555 1557 1558 1558 1560
1513 1517 1516 1508 1505 1507 1502 1500 1494 1493 1493 1487 1485 1482 1481 1480 1478 1477 1477 1476 1476 1476 1476 1477 1479 1484 1489 1493 1496 1501 1505 1511 1514 1518 1521 1525 1529 1533 1537 1539 1542 1544 1546 1548 1549 1550 1551 1552 1554
1513 1517 1516 1507 1502 1506 1498 1496 1490 1489 1480 1480 1476 1475 1473 1472 1472 1471 1470 1468 1466 1464 1464 1467 1472 1477 1482 1487 1492 1496 1501 1506 1510 1514 1518 1520 1524 1527 1531 1533 1536 1538 1541 1542 1543 1545 1547 1548 1549
1511 1513 1514 1512 1504 1498 1499 1480 1479 1475 1474 1471 1467 1467 1466 1466 1467 1466 1463 1461 1459 1458 1457 1460 1466 1472 1478 1483 1487 1492 1498 1502 1506 1509 1513 1516 1521 1523 1527 1529 1531 1532 1533 1535 1537 1539 1540 1541 1542
1509 1504 1506 1510 1515 1509 1500 1488 1474 1470 1465 1464 1461 1461 1459 1461 1462 1461 1459 1458 1457 1456 1455 1458 1464 1469 1474 1479 1484 1489 1494 1497 1501 1506 1509 1513 1516 1520 1523 1525 1526 1527 1527 1528 1529 1530 1531 1533 1534
1498 1499 1503 1508 1512 1512 1500 1500 1460 1469 1467 1456 1451 1451 1454 1456 1458 1458 1457 1457 1458 1457 1457 1459 1463 1467 1472 1477 1482 1486 1491 1494 1498 1502 1505 1509 1513 1515 1517 1519 1521 1522 1522 1523 1524 1524 1525 1527 1527
1492 1499 1505 1510 1510 1508 1492 1490 1442 1456 1455 1450 1446 1448 1451 1451 1454 1456 1457 1456 1457 1459 1459 1461 1463 1467 1472 1476 1480 1483 1487 1491 1494 1497 1501 1505 1508 1510 1511 1513 1514 1516 1518 1518 1518 1518 1519 1520 1520
1486 1494 1511 1514 1515 1491 1476 1485 1447 1449 1448 1444 1443 1444 1445 1448 1450 1453 1455 1456 1457 1460 1460 1461 1463 1467 1471 1475 1478 1481 1484 1488 1490 1495 1498 1501 1502 1504 1506 1507 1508 1509 1510 1513 1513 1513 1513 1513 1512
1480 1481 1489 1495 1498 1473 1484 1469 1442 1436 1438 1440 1439 1441 1442 1443 1448 1451 1453 1455 1456 1458 1461 1463 1465 1468 1471 1475 1478 1480 1482 1485 1488 1489 1491 1496 1500 1502 1502 1502 1502 1503 1504 1503 1502 1504 1507 1507 1506
1483 1483 1471 1481 1488 1489 1456 1442 1440 1439 1437 1438 1436 1437 1438 1442 1446 1452 1454 1453 1456 1457 1460 1462 1464 1467 1470 1473 1477 1479 1481 1483 1485 1487 1489 1490 1492 1495 1497 1498 1498 1497 1497 1498 1498 1496 1496 1498 1498
1457 1463 1481 1485 1486 1484 1451 1456 1440 1437 1433 1430 1430 1433 1437 1441 1445 1449 1452 1452 1453 1456 1459 1461 1464 1467 1470 1473 1476 1478 1480 1482 1483 1485 1487 1488 1489 1489 1489 1491 1492 1492 1491 1491 1491 1492 1492 1493 1496
1459 1460 1463 1463 1469 1462 1461 1433 1425 1422 1423 1426 1427 1430 1434 1438 1442 1446 1449 1452 1453 1455 1458 1462 1465 1468 1471 1472 1475 1476 1478 1479 1481 1483 1484 1485 1486 1486 1486 1486 1488 1487 1485 1485 1485 1484 1485 1486 1487
1435 1434 1443 1450 1464 1461 1450 1426 1422 1420 1422 1425 1426 1430 1432 1438 1442 1443 1447 1449 1452 1454 1457 1460 1463 1467 1469 1471 1474 1476 1477 1479 1481 1482 1483 1484 1483 1482 1483 1482 1481 1484 1484 1482 1480 1481 1481 1481 1481